TimeAKST,TemperatureF,Dew PointF,Humidity,Sea Level PressureIn,VisibilityMPH,Wind Direction,Wind SpeedMPH,Gust SpeedMPH,PrecipitationIn,Events,Conditions,WindDirDegrees,DateUTC
12:14 AM,35.6,33.8,93,29.24,8.0,East,24.2,27.6,0.02,Rain,Light Rain,90,2013-01-19 09:14:00
12:56 AM,37.0,32.0,82,29.24,8.0,East,19.6,-,0.05,Rain,Light Rain,80,2013-01-19 09:56:00
1:56 AM,37.0,32.0,82,29.21,10.0,East,23.0,26.5,0.01,,Overcast,90,2013-01-19 10:56:00
3:56 AM,39.0,35.1,86,29.13,7.0,East,15.0,23.0,0.02,Rain,Light Rain,80,2013-01-19 12:56:00
4:56 AM,39.0,35.1,86,29.11,9.0,East,13.8,-,0.00,Rain,Light Rain,100,2013-01-19 13:56:00
5:56 AM,39.0,36.0,89,29.08,8.0,East,12.7,-,0.00,Rain,Light Rain,90,2013-01-19 14:56:00
6:56 AM,39.0,36.0,89,29.04,8.0,SSE,4.6,-,0.01,Rain,Light Rain,160,2013-01-19 15:56:00
7:20 AM,39.2,35.6,87,29.01,8.0,Variable,3.5,-,0.00,Rain,Light Rain,0,2013-01-19 16:20:00
7:56 AM,37.9,35.1,89,29.01,6.0,Calm,Calm,-,0.00,Rain,Light Rain,0,2013-01-19 16:56:00
8:04 AM,37.4,35.6,93,29.00,6.0,Calm,Calm,-,0.00,Rain,Light Rain,0,2013-01-19 17:04:00
8:33 AM,37.4,35.6,93,28.98,4.0,South,3.5,-,0.01,Rain,Light Rain,170,2013-01-19 17:33:00
8:38 AM,37.4,35.6,93,28.98,5.0,Calm,Calm,-,0.01,Rain,Light Rain,0,2013-01-19 17:38:00
8:56 AM,37.9,35.1,89,28.98,7.0,East,9.2,-,0.01,Rain,Light Rain,90,2013-01-19 17:56:00
9:18 AM,37.4,35.6,93,28.96,9.0,South,3.5,-,0.00,Rain,Light Rain,190,2013-01-19 18:18:00
9:56 AM,37.9,35.1,89,28.97,6.0,WSW,3.5,-,0.01,Rain,Light Rain,250,2013-01-19 18:56:00
10:39 AM,37.4,35.6,93,28.94,4.0,Calm,Calm,-,0.00,Rain,Light Rain,0,2013-01-19 19:39:00
10:47 AM,37.4,35.6,93,28.94,5.0,SW,3.5,-,0.01,Rain,Light Rain,220,2013-01-19 19:47:00
10:50 AM,37.4,35.6,93,28.93,4.0,Calm,Calm,-,0.01,Rain,Light Rain,0,2013-01-19 19:50:00
10:56 AM,37.9,36.0,93,28.95,4.0,SSW,4.6,-,0.01,Rain,Light Rain,200,2013-01-19 19:56:00
11:26 AM,37.4,35.6,93,28.92,5.0,SSW,4.6,-,0.00,Rain,Light Rain,210,2013-01-19 20:26:00
11:41 AM,37.4,35.6,93,28.91,3.0,WSW,3.5,-,0.00,Rain,Light Rain,250,2013-01-19 20:41:00
11:45 AM,37.4,35.6,93,28.91,2.5,SW,3.5,-,0.00,Rain,Light Rain,230,2013-01-19 20:45:00
11:56 AM,37.9,35.1,89,28.93,1.8,Calm,Calm,-,0.00,Rain,Light Rain,0,2013-01-19 20:56:00
12:31 PM,37.4,35.6,93,28.89,2.5,NW,3.5,-,0.01,Rain,Light Rain,320,2013-01-19 21:31:00
12:36 PM,37.4,35.6,93,28.89,3.0,NNW,3.5,-,0.01,Rain,Light Rain,330,2013-01-19 21:36:00
12:56 PM,37.0,35.1,93,28.89,2.5,North,4.6,-,0.02,Rain,Light Rain,350,2013-01-19 21:56:00
1:13 PM,37.4,35.6,93,28.86,4.0,NNW,3.5,-,0.01,Rain,Light Rain,330,2013-01-19 22:13:00
1:32 PM,37.4,35.6,93,28.85,6.0,NNW,4.6,-,0.02,Rain,Light Rain,330,2013-01-19 22:32:00
1:56 PM,37.0,35.1,93,28.85,9.0,West,3.5,-,0.03,Rain,Light Rain,280,2013-01-19 22:56:00
2:13 PM,37.4,35.6,93,28.83,8.0,Calm,Calm,-,0.00,Rain,Light Rain,0,2013-01-19 23:13:00
2:56 PM,37.9,35.1,89,28.83,9.0,Calm,Calm,-,0.02,Rain,Light Rain,0,2013-01-19 23:56:00
3:16 PM,39.2,35.6,87,28.81,10.0,Calm,Calm,-,0.00,Rain,Light Rain,0,2013-01-20 00:16:00
3:56 PM,37.0,34.0,89,28.81,5.0,East,3.5,-,0.01,Rain,Light Rain,90,2013-01-20 00:56:00
4:56 PM,37.0,34.0,89,28.80,8.0,East,3.5,-,0.00,,Overcast,90,2013-01-20 01:56:00
5:56 PM,37.9,33.1,83,28.81,10.0,SSW,13.8,-,0.00,,Overcast,210,2013-01-20 02:56:00
6:56 PM,37.9,30.9,76,28.82,10.0,SSW,12.7,-,N/A,,Overcast,210,2013-01-20 03:56:00
7:53 PM,37.4,32.0,81,28.82,10.0,SSW,6.9,-,N/A,,Overcast,200,2013-01-20 04:53:00
7:56 PM,37.9,32.0,79,28.83,10.0,SSW,6.9,-,N/A,,Overcast,200,2013-01-20 04:56:00
8:56 PM,37.0,32.0,82,28.86,10.0,SE,5.8,-,0.00,,Overcast,140,2013-01-20 05:56:00
9:56 PM,37.0,30.0,76,28.88,10.0,South,8.1,-,0.00,,Overcast,180,2013-01-20 06:56:00
10:27 PM,35.6,28.4,75,28.88,10.0,SSE,9.2,-,N/A,,Scattered Clouds,150,2013-01-20 07:27:00
10:56 PM,37.0,28.9,73,28.91,10.0,South,9.2,-,N/A,,Partly Cloudy,170,2013-01-20 07:56:00
11:56 PM,37.0,28.0,70,28.95,10.0,SSE,13.8,20.7,N/A,,Clear,160,2013-01-20 08:56:00